Flag for France Weather past 2 weeks in Strasbourg, France

Now
68 °F

Clear.


Feels Like: 68 °F
Forecast: 60 / 80 °F
Wind: 5 mph from North

Location: Strasbourg Airport

Current Time: Jul 23, 2014 at 10:05:18 AM

Latest Report: Jul 23, 2014 at 8:00 AM


Visibility: N/A

Pressure: 29.98 "Hg

Humidity: 83%

Dew point: 63 °F

Location of StrasbourgLocation

Historic Weather in Strasbourg — Graph

°F

Strasbourg temperature yesterday

Maximum temperature yesterday: 79 °F (at 5:30 PM)
Minimum temperature yesterday: 64 °F (at 7:30 AM)
Average temperature yesterday: 70 °F

Past Weeks' High & Low Weather Summary

 TemperatureHumidityPressure
High93 °F (Jul 19, 5:30 PM)100% (Jul 10, 6:00 AM)30.18 "Hg (Jul 10, 6:00 AM)
Low54 °F (Jul 9, 10:30 PM)29% (Jul 18, 4:00 PM)29.74 "Hg (Jul 10, 4:00 AM)
Average69 °F76%29.96 "Hg
* Reported Jul 8 7:00 AM — Jul 23 7:30 AM, Strasbourg, Weather by CustomWeather, © 2014

Note: Actual official high and low records may vary slightly from our data, if they occured in-between our weather recording intervals... More about our weather records

Advertising

Strasbourg weather history for previous 24 hours

 ConditionsComfort  
Time TempWeatherWind HumidityBarometerVisibility
7:30 AM
Jul 23
66 °FClear.3 mph88%29.98 "HgN/A
6:30 AM63 °FClear.3 mph94%29.98 "HgN/A
6:00 AM61 °FClear.5 mph94%30.01 "HgN/A
5:30 AM63 °FClear.2 mph88%30.01 "HgN/A
5:00 AM63 °FClear.2 mph94%29.98 "HgN/A
4:30 AM64 °FClear.No wind88%29.98 "HgN/A
4:00 AM64 °FClear.3 mph94%29.98 "HgN/A
3:30 AM64 °FClear.5 mph94%29.98 "HgN/A
3:00 AM64 °FClear.5 mph94%29.98 "HgN/A
2:30 AM64 °FClear.3 mph94%30.01 "HgN/A
2:00 AM64 °FClear.3 mph94%30.01 "HgN/A
1:00 AM66 °FClear.No wind94%30.01 "HgN/A
7:00 PM
Jul 22
75 °FScattered clouds.6 mph74%29.95 "HgN/A
6:30 PM77 °FPartly sunny.6 mph74%29.95 "HgN/A
6:00 PM77 °FBroken clouds.10 mph69%29.95 "HgN/A
5:30 PM79 °FWarm.7 mph70%29.95 "HgN/A
5:00 PM77 °FPartly sunny.8 mph69%29.95 "HgN/A
4:30 PM77 °FPartly sunny.7 mph69%29.95 "HgN/A
4:00 PM75 °FPartly sunny.10 mph78%29.98 "HgN/A
3:30 PM75 °FPartly sunny.9 mph78%29.98 "HgN/A
3:00 PM75 °FLight rain. Broken clouds.10 mph78%29.95 "HgN/A
2:30 PM75 °FBroken clouds.10 mph74%29.95 "HgN/A
2:00 PM73 °FBroken clouds.9 mph83%29.95 "HgN/A
1:30 PM73 °FLight rain. Partly sunny.5 mph83%29.95 "HgN/A
1:00 PM72 °FLight rain. Mostly cloudy.10 mph83%29.95 "HgN/A
12:30 PM72 °FMostly cloudy.9 mph83%29.95 "HgN/A
12:00 PM72 °FMostly cloudy.10 mph83%29.95 "HgN/A
11:30 AM72 °FPartly sunny.12 mph83%29.95 "HgN/A
11:00 AM70 °FPartly sunny.10 mph88%29.95 "HgN/A
10:30 AM70 °FPartly sunny.12 mph88%29.92 "HgN/A
10:00 AM68 °FMostly cloudy.10 mph94%29.92 "HgN/A
Weather by CustomWeather, © 2014

See weather overviewHow to use our weather pages